Temperature
20 20 19 20 20 19 20 21 21 21 21 22 21 21 20 19 18 17 17 16 16 15 15 15 15 15 15 15 15 15 15 14 14 14 14 13 13 13 13 13 13 12 12 12
19 19 19 19 19 19 20 20 20 20 20 21 20 19 19 19 18 17 17 16 15 15 15 15 15 15 15 15 14 14 14 14 14 13 13 13 13 13 13 13 12 12 12 12
19 19 18 19 20 19 19 20 20 20 20 20 19 19 18 18 17 17 16 16 15 15 15 15 15 15 15 14 14 14 14 13 13 13 13 13 12 12 12 12 12 12 12 11
18 18 17 20 20 19 19 19 19 19 19 19 18 17 16 16 16 16 15 15 15 15 14 14 14 14 14 14 14 14 13 13 13 13 13 12 12 12 12 12 12 12 12 11
17 17 18 19 18 18 18 19 19 18 18 17 16 17 17 15 15 15 14 14 14 14 14 14 14 14 14 13 13 13 13 13 13 12 12 12 12 12 12 11 11 11 11 11
17 17 17 19 18 17 18 18 18 18 18 17 16 18 18 15 14 14 14 14 14 14 14 14 13 13 13 13 13 13 13 12 12 12 12 12 12 11 11 11 11 11 11 10
16 16 18 18 16 16 17 18 17 17 17 16 16 17 15 14 13 13 13 13 14 13 13 13 13 13 13 13 12 12 12 12 12 12 12 11 11 11 11 11 11 10 10 10
16 16 17 17 16 17 17 16 16 15 15 15 15 14 14 13 13 13 13 13 13 13 13 13 13 13 12 12 12 12 12 12 12 11 11 11 11 11 10 10 10 9 9 9
17 17 17 15 16 15 15 15 15 14 14 14 14 13 13 13 12 12 12 12 12 12 12 12 12 12 12 12 12 12 11 11 11 11 11 11 11 10 10 9 9 9 8 8
15 16 16 15 14 14 14 14 13 13 13 13 13 13 12 12 12 12 12 12 12 12 12 12 11 11 11 11 11 11 11 11 11 11 11 10 10 10 9 9 9 8 8 8
15 15 15 14 14 13 13 13 13 12 12 12 12 12 12 11 11 11 11 11 12 12 11 11 11 11 11 10 10 10 10 10 10 10 10 10 9 9 9 9 9 8 8 8
14 15 15 15 13 13 12 12 12 12 12 12 11 11 11 11 11 11 11 11 11 11 11 11 11 10 10 10 10 10 10 10 10 10 9 9 9 9 8 8 8 8 8 7
13 12 12 12 12 12 12 12 12 11 11 11 11 11 11 11 11 10 10 10 11 11 10 10 10 10 10 10 10 9 9 9 9 9 9 8 8 8 8 7 7 7 7 7
11 11 11 11 11 11 11 11 11 11 11 11 11 10 10 10 10 10 10 10 10 10 10 10 10 9 9 9 9 9 9 9 9 8 8 8 8 7 7 7 6 6 6 6
10 10 10 10 10 10 10 10 10 10 10 10 10 10 10 10 10 10 9 9 9 9 9 9 9 9 9 9 8 8 8 8 8 8 8 8 7 7 7 6 6 6 6 6
10 10 9 9 9 9 9 9 9 9 9 9 9 9 9 9 9 9 9 9 9 9 9 9 9 9 8 8 8 8 8 8 7 7 7 7 7 6 6 6 6 5 5 5
9 9 9 9 9 9 9 9 9 9 9 9 9 9 9 9 9 9 8 9 9 8 8 8 8 8 8 8 7 7 7 7 7 7 6 6 6 6 6 5 5 5 5 5
9 8 8 8 8 8 8 8 8 8 8 8 8 8 8 8 8 8 8 8 8 8 8 8 8 7 7 7 7 7 6 6 6 6 6 6 5 5 5 5 5 4 4 4
8 8 8 8 8 8 8 8 8 8 8 8 8 8 8 8 8 8 8 7 7 7 7 7 7 7 7 7 6 6 6 6 6 5 5 5 5 5 5 4 4 4 4 4
7 7 7 7 7 7 7 7 7 7 7 7 7 7 7 7 7 7 7 7 7 7 7 7 7 6 6 6 6 6 5 5 5 5 5 5 4 4 4 4 4 4 3 3
7 7 6 6 6 6 6 6 7 7 6 6 6 6 6 6 6 6 6 6 7 6 6 6 6 6 6 6 5 5 5 5 5 5 5 4 4 4 4 3 3 3 3 3
6 6 6 6 6 6 6 6 6 6 6 6 6 6 6 6 6 6 6 6 6 6 6 6 6 6 5 5 5 5 5 5 4 4 4 4 4 4 3 3 3 3 3 3
5 5 5 5 5 5 5 5 5 5 5 6 6 5 5 5 5 5 5 5 5 5 5 5 5 5 5 5 5 4 4 4 4 4 4 4 4 3 3 3 3 2 2 2
5 5 5 5 5 5 5 5 5 5 5 5 5 5 5 5 5 5 5 5 5 5 5 5 5 5 5 5 4 4 4 4 3 3 3 3 3 3 3 2 2 2 2 2
4 4 4 4 4 4 4 4 5 5 5 5 5 5 5 5 5 5 5 4 4 5 4 4 5 4 4 4 4 4 3 3 3 3 3 3 3 2 2 2 2 2 2 1
4 4 4 4 4 4 4 4 4 4 5 4 4 4 4 4 4 4 4 4 4 4 4 4 4 4 4 3 3 3 3 3 3 3 2 3 2 2 2 2 2 1 1 1
4 4 4 4 4 4 4 4 4 4 4 4 4 4 4 4 4 4 4 4 4 4 4 3 3 3 3 3 3 2 2 2 2 2 2 2 2 2 2 1 1 1 1 1
Wind_Speed
9 7 8 10 11 12 14 14 13 13 12 10 7 7 6 4 3 2 3 4 5 5 5 5 5 4 4 5 5 5 6 6 6 5 4 4 4 4 4 4 4 3 3 2
9 8 9 12 12 13 14 14 14 14 13 9 6 5 5 4 4 4 4 4 5 5 5 5 5 5 4 5 5 6 6 5 5 5 5 4 4 4 4 4 3 3 3 2
10 8 8 13 13 13 12 11 12 14 11 6 5 5 4 4 3 4 4 4 5 6 6 5 5 5 5 5 5 5 5 5 5 5 5 4 4 4 4 4 3 3 2 2
8 8 12 6 3 7 10 10 10 10 8 7 6 5 4 3 4 4 4 3 4 5 5 5 5 5 5 5 5 5 5 5 5 5 5 5 5 4 4 4 3 3 3 2
7 10 11 7 4 5 8 9 7 8 7 5 4 4 5 2 3 4 4 3 3 4 5 5 5 5 5 5 5 5 5 5 5 5 5 5 5 5 4 4 4 3 2 2
8 9 9 4 1 2 6 9 4 5 5 4 4 6 5 2 3 4 3 3 3 3 4 5 5 5 6 6 6 6 5 5 5 5 5 5 5 5 4 4 4 3 2 2
12 10 8 2 1 3 7 4 1 4 5 5 6 5 3 3 3 3 2 2 3 4 4 5 5 6 6 6 6 5 4 4 5 5 5 5 4 4 4 4 4 3 3 2
9 10 8 2 3 4 3 3 3 3 4 4 5 4 3 3 2 2 2 2 3 3 4 4 5 6 6 6 5 4 4 5 4 4 4 4 4 4 4 4 4 3 3 2
7 5 2 2 3 3 4 5 4 4 4 4 4 4 4 3 3 2 2 2 3 3 3 4 5 6 7 5 5 5 5 5 4 4 4 4 5 5 4 4 3 3 3 2
7 8 7 6 6 5 5 5 5 5 5 5 6 5 4 4 3 3 3 3 3 3 4 4 5 6 6 6 6 7 6 6 5 5 4 4 4 4 4 4 4 3 3 3
10 9 8 7 6 5 5 6 6 6 6 6 6 6 6 5 4 4 4 3 4 4 4 5 5 5 6 6 7 7 7 6 5 5 5 5 4 3 4 3 3 3 3 3
10 9 9 8 7 7 8 8 8 7 7 6 6 7 6 6 5 5 5 4 5 5 5 5 5 6 6 6 7 7 6 6 5 5 5 4 4 3 2 1 2 1 1 2
12 11 11 11 9 9 8 8 8 7 7 7 7 7 7 6 5 5 5 5 5 5 5 5 5 5 6 6 7 7 7 6 5 5 5 5 5 4 3 2 2 2 2 1
10 10 10 9 9 8 7 7 6 7 7 7 6 6 6 6 5 5 6 6 5 5 5 5 5 5 5 6 7 7 7 6 6 5 5 5 5 4 4 4 3 2 2 2
10 9 9 8 8 7 6 6 6 6 6 5 5 6 6 6 6 6 5 5 5 5 5 5 6 5 5 6 6 7 6 5 5 5 5 5 5 4 4 4 4 3 2 2
8 8 7 7 8 7 6 6 6 6 6 5 5 6 6 6 5 5 5 5 6 6 6 6 6 5 5 6 6 5 5 6 6 5 5 5 4 4 4 4 4 3 3 2
8 8 7 7 7 7 7 7 7 6 6 6 6 6 5 5 5 5 5 6 6 6 6 6 6 5 6 6 5 5 5 6 7 6 5 5 5 5 4 4 4 4 3 2
7 7 7 7 7 7 7 7 7 7 7 6 6 6 6 6 6 6 5 5 5 5 6 6 6 5 6 6 5 5 5 5 5 5 5 5 5 5 4 5 5 4 3 3
4 5 5 6 7 7 7 7 7 7 6 6 6 6 6 6 6 5 4 5 5 6 5 5 5 6 5 5 5 4 5 5 5 4 4 5 5 5 5 5 5 4 4 4
3 4 5 5 5 6 6 6 6 6 5 5 5 6 5 5 5 5 5 6 5 5 4 4 5 5 5 6 5 4 5 5 5 5 5 5 5 5 5 5 5 4 4 4
4 4 4 4 4 4 5 5 5 5 4 4 4 4 4 4 4 4 5 5 5 4 4 4 5 5 5 5 6 4 5 5 5 5 5 5 5 5 5 5 5 5 4 4
3 3 3 4 4 4 3 3 3 3 3 3 3 3 3 3 3 3 4 4 3 3 3 4 4 5 6 6 5 5 5 5 4 4 5 5 5 5 5 5 5 4 4 4
3 3 3 4 4 4 3 3 3 3 3 3 4 4 4 3 3 3 3 3 3 3 4 4 4 6 7 5 5 5 5 5 5 4 5 5 5 5 5 5 5 4 4 4
4 4 4 4 3 3 4 3 3 3 3 3 3 3 3 3 3 3 2 2 2 4 4 4 5 7 6 4 5 5 5 5 4 4 5 4 4 4 4 4 4 4 5 5
4 4 3 4 3 3 3 3 3 3 3 2 2 2 3 2 2 2 2 2 3 3 3 3 6 6 5 4 4 4 4 4 4 5 5 4 4 4 4 4 4 4 4 4
4 3 3 3 3 3 3 3 2 3 3 2 2 2 2 1 1 1 2 2 3 3 3 3 4 4 4 4 4 4 4 4 5 4 4 4 4 4 4 4 5 4 4 4
4 3 3 3 3 3 3 2 3 3 3 2 2 2 1 1 1 2 2 2 2 2 2 2 3 4 4 4 4 4 4 4 4 4 4 3 3 3 4 4 4 4 4 4
Wind_Direction
257 267 259 250 243 234 237 246 254 260 261 268 274 275 273 276 274 242 213 198 193 188 179 174 169 174 175 175 178 179 181 186 189 189 187 184 176 178 179 181 189 188 191 195
251 250 254 255 251 242 242 247 251 260 263 276 280 266 262 264 266 257 240 223 208 198 189 184 179 176 171 173 176 179 182 187 183 183 178 178 176 174 172 175 182 178 191 192
254 252 259 254 245 239 239 239 246 253 262 265 261 261 268 277 277 271 265 238 217 206 201 194 189 183 178 176 173 178 183 182 177 177 174 175 170 170 171 173 172 175 184 187
256 248 248 253 246 236 242 246 246 254 262 259 260 261 263 275 282 287 279 253 224 206 202 196 188 185 178 176 175 179 184 181 176 177 175 172 172 173 173 170 168 176 176 179
242 248 258 252 237 224 236 247 248 251 253 252 251 250 242 263 277 285 283 264 238 212 198 191 186 181 180 183 183 185 187 185 182 181 178 175 179 181 177 172 168 171 164 169
235 243 251 244 193 239 246 245 235 241 248 248 236 248 249 273 292 292 290 267 230 206 197 193 191 187 189 194 195 196 194 186 181 184 183 181 183 181 176 172 168 162 159 176
237 246 256 271 152 191 229 261 244 254 256 240 242 271 291 290 282 276 267 246 211 201 200 196 193 194 199 202 206 200 190 183 177 182 184 181 175 171 169 166 162 164 163 168
230 239 247 158 173 217 279 339 318 293 277 263 270 285 281 279 274 267 250 224 205 205 206 198 196 199 203 207 203 190 185 183 181 178 170 165 163 166 165 163 165 167 172 174
235 248 306 213 243 287 311 300 299 291 292 285 274 266 270 276 273 262 243 221 210 210 211 208 204 205 206 200 190 187 186 185 184 178 172 167 167 167 166 167 173 179 188 198
254 254 255 256 270 279 286 297 301 291 281 276 272 268 266 264 257 248 239 230 217 212 217 215 209 207 206 194 189 188 188 188 186 183 178 176 171 173 174 176 182 190 198 207
255 265 269 260 261 274 287 294 296 292 281 273 269 267 264 259 251 245 241 236 226 223 224 221 210 207 202 193 188 189 188 188 189 189 184 185 182 182 189 192 197 203 210 213
258 266 271 275 281 286 286 287 288 285 281 276 264 262 261 257 253 248 241 236 230 228 225 218 209 205 200 194 192 191 191 191 192 191 189 190 183 173 122 173 147 188 264 243
270 281 281 283 283 278 277 280 281 277 273 271 267 262 258 255 252 249 245 243 235 225 221 215 209 207 199 196 195 196 198 195 193 192 190 191 188 183 178 161 148 170 186 205
266 270 271 273 276 278 279 279 277 275 273 270 266 258 253 253 251 248 248 246 239 231 221 211 207 207 200 197 198 200 200 195 193 193 193 193 193 193 192 191 198 208 187 168
264 259 264 276 281 281 279 275 272 270 271 271 265 256 249 247 246 249 252 247 234 225 218 212 210 209 199 198 200 201 198 196 196 197 195 195 193 193 197 202 204 203 199 185
269 264 260 265 272 276 275 272 270 270 273 272 265 258 253 250 250 251 245 235 225 219 215 212 213 211 199 199 198 200 197 188 195 196 194 194 194 194 197 203 207 208 206 200
264 261 263 265 269 272 271 270 272 272 270 268 266 263 256 252 250 248 240 232 230 229 221 216 213 204 194 197 199 200 197 189 187 192 195 196 197 199 200 204 209 213 215 202
260 262 265 266 269 271 273 274 275 274 271 272 271 261 252 249 250 249 241 235 231 231 229 222 216 204 199 199 200 197 194 191 194 193 194 196 198 202 205 208 211 214 215 201
277 275 274 273 273 271 272 276 278 277 276 271 261 253 250 250 248 245 237 230 230 231 229 220 199 201 202 196 187 193 193 188 190 191 193 188 198 208 209 212 215 217 217 216
291 290 287 286 284 280 279 280 283 282 277 267 259 256 253 249 245 237 231 233 236 236 227 209 200 202 198 189 182 193 192 189 189 190 190 193 201 207 210 213 215 218 218 220
301 303 302 297 294 292 289 288 285 281 278 268 255 253 255 256 249 237 231 238 244 237 215 197 201 197 191 187 185 193 192 191 193 194 193 197 203 206 210 214 217 220 223 225
304 305 307 305 304 304 303 300 293 287 281 272 264 258 253 250 241 237 238 245 239 209 207 209 206 186 181 182 191 191 192 193 196 198 199 201 205 207 210 214 218 222 225 228
308 308 305 304 304 306 310 305 299 291 280 274 266 256 247 245 239 236 245 252 235 209 211 210 190 176 180 186 186 188 192 194 195 200 205 207 207 209 211 214 217 221 225 229
318 316 311 306 302 301 300 307 309 299 286 278 272 264 255 247 243 239 242 220 217 205 211 191 180 180 185 189 187 190 192 193 193 201 207 207 207 210 214 217 220 224 226 229
315 313 313 312 308 304 301 306 308 306 299 294 290 274 262 252 245 238 234 221 201 198 210 193 183 182 189 189 189 191 195 198 199 202 202 201 204 210 216 220 223 226 227 230
309 306 302 300 301 301 302 298 295 296 296 294 297 296 281 256 225 216 216 214 208 202 207 197 186 187 190 186 188 192 196 197 199 203 204 201 205 210 217 221 225 227 230 235
307 306 305 305 308 308 303 293 285 285 282 277 280 287 275 254 227 217 221 217 203 200 201 197 191 187 186 187 190 192 193 193 195 199 203 203 206 213 218 223 227 227 229 232
Height
1489 1489 1490 1490 1490 1491 1490 1487 1488 1483 1482 1480 1482 1484 1486 1487 1488 1489 1489 1490 1491 1492 1494 1495 1497 1498 1500 1501 1503 1504 1506 1508 1509 1511 1512 1513 1515 1515 1516 1517 1517 1518 1518 1518
1491 1490 1490 1489 1486 1486 1486 1484 1484 1483 1482 1480 1482 1484 1484 1485 1486 1486 1487 1488 1489 1490 1492 1493 1495 1496 1497 1499 1500 1502 1503 1505 1506 1507 1509 1510 1511 1512 1513 1514 1514 1515 1515 1515
1489 1488 1489 1486 1479 1480 1481 1480 1481 1481 1479 1480 1481 1482 1483 1484 1484 1485 1485 1486 1486 1488 1489 1491 1492 1494 1495 1496 1498 1499 1500 1502 1503 1504 1506 1507 1508 1509 1510 1511 1511 1512 1512 1512
1488 1490 1492 1476 1474 1476 1477 1477 1478 1478 1478 1479 1481 1482 1483 1483 1483 1483 1483 1484 1485 1486 1487 1489 1490 1491 1493 1494 1495 1497 1498 1499 1500 1501 1502 1504 1505 1506 1507 1508 1508 1509 1509 1509
1487 1486 1479 1474 1474 1475 1476 1475 1476 1476 1477 1479 1480 1480 1480 1481 1481 1481 1481 1482 1483 1484 1485 1486 1487 1489 1490 1492 1493 1494 1495 1496 1497 1498 1499 1500 1502 1503 1504 1505 1506 1506 1507 1507
1485 1486 1481 1472 1473 1475 1476 1474 1474 1474 1475 1477 1478 1476 1476 1478 1478 1478 1478 1479 1480 1481 1482 1483 1484 1486 1487 1489 1490 1491 1492 1493 1494 1495 1496 1497 1499 1500 1501 1502 1503 1503 1504 1504
1483 1481 1472 1471 1474 1476 1478 1473 1473 1473 1474 1475 1475 1474 1476 1475 1475 1475 1475 1476 1476 1478 1479 1480 1481 1483 1484 1486 1487 1488 1489 1490 1491 1492 1494 1495 1496 1497 1498 1499 1500 1501 1501 1501
1479 1480 1475 1472 1473 1473 1472 1473 1473 1473 1473 1473 1473 1473 1473 1473 1473 1473 1472 1473 1474 1474 1476 1477 1478 1480 1481 1482 1484 1485 1486 1487 1488 1490 1491 1492 1493 1494 1495 1496 1497 1497 1498 1498
1472 1471 1470 1471 1472 1473 1473 1473 1472 1472 1472 1472 1471 1471 1471 1471 1470 1470 1470 1470 1471 1471 1472 1473 1475 1476 1478 1479 1480 1482 1483 1484 1485 1486 1488 1489 1490 1491 1492 1493 1494 1494 1495 1495
1471 1468 1469 1471 1471 1471 1472 1471 1471 1470 1470 1470 1469 1469 1469 1468 1468 1468 1468 1468 1468 1469 1469 1470 1471 1472 1474 1475 1477 1478 1479 1481 1482 1483 1484 1486 1487 1488 1489 1490 1490 1491 1492 1492
1468 1468 1468 1468 1469 1469 1469 1469 1468 1468 1467 1467 1466 1466 1466 1466 1465 1465 1465 1465 1465 1465 1466 1467 1468 1469 1470 1472 1473 1474 1476 1477 1479 1480 1481 1482 1484 1485 1486 1487 1487 1488 1488 1489
1465 1465 1465 1465 1466 1466 1466 1466 1465 1464 1464 1463 1464 1463 1463 1462 1462 1462 1462 1461 1461 1462 1463 1464 1465 1466 1467 1469 1470 1471 1473 1474 1475 1476 1477 1479 1480 1481 1482 1483 1484 1484 1485 1485
1465 1464 1464 1463 1463 1463 1463 1462 1462 1461 1461 1460 1460 1460 1459 1459 1458 1458 1458 1458 1458 1458 1459 1460 1461 1463 1464 1465 1466 1468 1469 1470 1472 1473 1474 1475 1476 1476 1477 1479 1480 1481 1481 1481
1462 1461 1460 1460 1459 1459 1459 1458 1458 1458 1457 1457 1456 1456 1455 1455 1455 1454 1454 1454 1454 1455 1455 1457 1458 1459 1460 1461 1462 1464 1465 1467 1468 1469 1470 1471 1472 1473 1474 1475 1476 1476 1477 1477
1457 1457 1456 1456 1455 1455 1455 1455 1454 1454 1453 1453 1452 1452 1451 1451 1451 1451 1451 1451 1451 1451 1452 1453 1454 1455 1456 1457 1458 1460 1461 1462 1464 1465 1466 1468 1469 1470 1471 1472 1473 1473 1473 1473
1452 1452 1451 1451 1451 1451 1451 1451 1450 1449 1449 1448 1448 1448 1448 1447 1447 1447 1447 1447 1447 1447 1448 1449 1450 1451 1452 1453 1454 1456 1457 1458 1460 1461 1462 1463 1465 1466 1467 1468 1469 1469 1469 1469
1447 1446 1447 1447 1447 1447 1447 1447 1446 1446 1445 1444 1444 1444 1443 1443 1443 1443 1443 1443 1443 1444 1444 1445 1446 1447 1448 1449 1450 1451 1452 1454 1455 1456 1458 1459 1460 1462 1463 1464 1465 1465 1466 1466
1443 1443 1443 1443 1443 1443 1442 1442 1442 1441 1441 1440 1440 1439 1439 1439 1439 1439 1439 1440 1440 1440 1441 1441 1442 1442 1443 1444 1446 1447 1448 1449 1451 1452 1453 1455 1456 1458 1459 1460 1461 1461 1461 1462
1439 1439 1439 1439 1439 1438 1438 1437 1437 1436 1436 1436 1435 1435 1434 1435 1435 1435 1436 1436 1436 1436 1437 1437 1438 1438 1439 1440 1442 1443 1444 1445 1447 1448 1449 1451 1452 1454 1455 1456 1457 1457 1457 1458
1436 1436 1436 1435 1434 1434 1433 1433 1432 1432 1431 1431 1430 1430 1430 1430 1430 1431 1431 1431 1431 1432 1433 1433 1434 1435 1436 1437 1438 1439 1441 1442 1443 1444 1445 1447 1448 1450 1451 1452 1452 1453 1453 1453
1434 1433 1432 1432 1431 1430 1430 1429 1428 1427 1427 1426 1426 1426 1426 1426 1426 1426 1426 1426 1427 1428 1429 1430 1431 1432 1433 1434 1434 1436 1437 1438 1439 1440 1441 1443 1444 1445 1447 1447 1448 1448 1449 1449
1432 1431 1430 1429 1428 1427 1427 1426 1425 1424 1423 1423 1422 1422 1422 1422 1422 1422 1422 1423 1424 1424 1425 1426 1427 1428 1429 1430 1431 1432 1433 1435 1436 1437 1438 1439 1440 1441 1442 1443 1444 1444 1444 1445
1430 1429 1428 1427 1426 1425 1424 1423 1422 1421 1420 1420 1419 1419 1419 1419 1419 1419 1419 1420 1420 1421 1422 1422 1424 1425 1426 1427 1428 1429 1430 1431 1432 1433 1434 1435 1436 1437 1438 1439 1439 1440 1440 1440
1428 1427 1426 1424 1423 1422 1421 1421 1420 1419 1418 1417 1416 1416 1416 1416 1415 1415 1416 1417 1417 1418 1418 1419 1420 1421 1423 1424 1425 1426 1427 1428 1429 1430 1431 1431 1432 1433 1434 1434 1435 1435 1435 1435
1426 1425 1424 1422 1421 1420 1419 1418 1417 1416 1415 1415 1414 1414 1413 1413 1413 1413 1413 1414 1414 1414 1415 1416 1417 1418 1419 1420 1421 1422 1423 1424 1425 1426 1427 1427 1428 1429 1429 1430 1430 1430 1430 1431
1424 1423 1422 1421 1420 1418 1417 1416 1415 1414 1413 1413 1412 1412 1411 1410 1410 1410 1410 1411 1411 1412 1412 1413 1414 1414 1415 1416 1418 1418 1419 1420 1421 1423 1423 1423 1424 1424 1425 1425 1426 1426 1426 1426
1423 1421 1420 1419 1418 1416 1415 1414 1413 1412 1411 1410 1410 1409 1409 1408 1408 1408 1408 1408 1409 1409 1409 1410 1411 1411 1412 1413 1414 1415 1416 1417 1418 1419 1419 1420 1420 1420 1421 1421 1422 1422 1422 1422